Regional Weather Roundup
Issued by NWS

Home | Current Version | Previous Version | Text Only | Print | Product List | Glossary Off
Versions: 1 2 3 4 5 6 7 8 9 10 11 12 13 14 15 16 17 18 19 20 21 22 23 24 25 26 27 28 29 30 31 32 33 34 35 36 37 38 39 40 41 42 43 44 45 46 47 48 49 50

951
ASUS43 KMKX 221221
RWRWI

WISCONSIN REGIONAL WEATHER ROUNDUP
NATIONAL WEATHER SERVICE MILWAUKEE/SULLIVAN WI
600 AM CST WED FEB 22 2017

NOTE: "FAIR" INDICATES FEW OR NO CLOUDS BELOW 12,000 FEET WITH NO
SIGNIFICANT WEATHER AND/OR OBSTRUCTIONS TO VISIBILITY.

WIZ001-002-006>008-014>016-023>028-221300-
NORTHWEST WISCONSIN

CITY           SKY/WX    TMP DP  RH WIND       PRES   REMARKS
SUPERIOR ARPT  CLOUDY    32  32 100 S3        29.64S FOG
6HR MIN TEMP:  29; 6HR MAX TEMP:  34;

ASHLAND        CLOUDY    38  37  97 CALM      29.64R
6HR MIN TEMP:  33; 6HR MAX TEMP:  46;

HAYWARD        CLOUDY    32  30  92 CALM      29.63S
6HR MIN TEMP:  32; 6HR MAX TEMP:  49;

SIREN          FOG       33  33  99 CALM      29.61F VSB 1/2
6HR MIN TEMP:  32; 6HR MAX TEMP:  39;

CUMBERLAND     CLOUDY    32  32 100 SE3       29.62F FOG
RICE LAKE      CLOUDY    36  35  99 CALM      29.64R FOG
6HR MIN TEMP:  32; 6HR MAX TEMP:  42;

CHETEK         CLOUDY    36  36 100 N3        29.63S
6HR MIN TEMP:  32; 6HR MAX TEMP:  42;

LADYSMITH      CLOUDY    38  37  96 SE8       29.63F WCI  33
6HR MIN TEMP:  34; 6HR MAX TEMP:  41;

EAU CLAIRE     CLOUDY    38  36  92 NE5       29.60F WCI  34
6HR MIN TEMP:  33; 6HR MAX TEMP:  46;

MENOMONIE      CLOUDY    37  35  94 NE3       29.59F
6HR MIN TEMP:  35; 6HR MAX TEMP:  47;

NEW RICHMOND   PTCLDY    38  38 100 E3        29.59S
6HR MIN TEMP:  34; 6HR MAX TEMP:  44;

OSCEOLA        PTCLDY    37  37 100 NE5       29.63R FOG     WCI  34
$$

WIZ003>005-009-010-017-018-221300-
NORTH CENTRAL WISCONSIN

CITY           SKY/WX    TMP DP  RH WIND       PRES   REMARKS
MANITOWISH WTR MOCLDY    31  31 100 CALM      29.63S
6HR MIN TEMP:  31; 6HR MAX TEMP:  46;

ARBOR VITAE    PTCLDY    34  32  94 CALM        N/A
6HR MIN TEMP:  33; 6HR MAX TEMP:  45;

WOODRUFF       PTCLDY    34  32  94 CALM        N/A
6HR MIN TEMP:  33; 6HR MAX TEMP:  45;

RHINELANDER    PTCLDY    35  32  88 CALM      29.64F
6HR MIN TEMP:  35; 6HR MAX TEMP:  48;

EAGLE RIVER    MOCLDY    32  31  95 NE3       29.62F
6HR MIN TEMP:  32; 6HR MAX TEMP:  46;

LAND O LAKES   PTCLDY    32  31  96 CALM      29.65S
6HR MIN TEMP:  32; 6HR MAX TEMP:  46;

PHILLIPS       CLOUDY    31  31 100 CALM      29.65R
6HR MIN TEMP:  30; 6HR MAX TEMP:  44;

TOMAHAWK       PTCLDY    30  28  93 CALM      29.65S
6HR MIN TEMP:  30; 6HR MAX TEMP:  45;

MEDFORD        CLOUDY    36  33  91 SW8       29.69R WCI  29
6HR MIN TEMP:  35; 6HR MAX TEMP:  44;

MERRILL        NOT AVBL
$$

WIZ029-030-035-036-043>047-221300-
CENTRAL WISCONSIN

CITY           SKY/WX    TMP DP  RH WIND       PRES   REMARKS
WAUSAU         CLOUDY    38  34  85 SW9       29.65S WCI  31
6HR MIN TEMP:  37; 6HR MAX TEMP:  46;

MOSINEE        CLEAR     37  36  93 S7        29.67F WCI  32
MARSHFIELD     PTCLDY    41  34  76 SW10      29.69R
6HR MIN TEMP:  37; 6HR MAX TEMP:  45;

STEVENS POINT  CLEAR     33  31  94 S3        29.68S
6HR MIN TEMP:  29; 6HR MAX TEMP:  42;

WAUPACA        CLEAR     36  32  87 S3        29.69S
6HR MIN TEMP:  36; 6HR MAX TEMP:  50;

WAUTOMA        CLEAR     30  28  92 CALM      29.70S
6HR MIN TEMP:  29; 6HR MAX TEMP:  49;

WISC RAPIDS    PTCLDY    38  36  92 SW8       29.69R WCI  32
6HR MIN TEMP:  35; 6HR MAX TEMP:  48;

CAMP DOUGLAS   PTCLDY    46  36  66 W6        29.69R
$$

WIZ011>013-019>022-031-037>040-048>050-221300-
NORTHEAST WISCONSIN

CITY           SKY/WX    TMP DP  RH WIND       PRES   REMARKS
ANTIGO         CLOUDY    38  34  86 SW5       29.66S WCI  35
6HR MIN TEMP:  36; 6HR MAX TEMP:  43;

SHAWANO        CLEAR     36  33  88 CALM      29.69R
6HR MIN TEMP:  37; 6HR MAX TEMP:  50;

OCONTO         PTCLDY    30  29  96 CALM      29.68S
6HR MIN TEMP:  30; 6HR MAX TEMP:  44;

STURGEON BAY   PTCLDY    36  35  96 E3        29.70F FOG
6HR MIN TEMP:  36; 6HR MAX TEMP:  48;

GREEN BAY      CLEAR     38  37  97 W3        29.69F
6HR MIN TEMP:  37; 6HR MAX TEMP:  49;

MANITOWOC      CLEAR     35  34  96 SE5       29.71F FOG     WCI  31
6HR MIN TEMP:  34; 6HR MAX TEMP:  47;

APPLETON       CLEAR     37  36  93 S6        29.67F WCI  33
CLINTONVILLE   CLEAR     32  32 100 CALM      29.68S
OSHKOSH        CLEAR     44  41  89 S12       29.69F
6HR MIN TEMP:  44; 6HR MAX TEMP:  51;

$$

WIZ032>034-041-042-053>061-221300-
SOUTHWEST WISCONSIN

CITY           SKY/WX    TMP DP  RH WIND       PRES   REMARKS
LA CROSSE      MOCLDY    43  36  76 S8        29.67S
6HR MIN TEMP:  43; 6HR MAX TEMP:  51;

SPARTA         PTCLDY    42  36  78 CALM      29.68F
6HR MIN TEMP:  34; 6HR MAX TEMP:  51;

VIROQUA        MOCLDY    46  35  66 S7        29.68S
6HR MIN TEMP:  43; 6HR MAX TEMP:  47;

BOSCOBEL       CLEAR     32  30  92 CALM      29.71F FOG
6HR MIN TEMP:  31; 6HR MAX TEMP:  45;

PRAIRIE DU CHI CLEAR     41  34  76 E3        29.70F
6HR MIN TEMP:  37; 6HR MAX TEMP:  49;

PLATTEVILLE    CLOUDY    42  42 100 SE6       29.75S VSB 1/4
6HR MIN TEMP:  41; 6HR MAX TEMP:  46;

$$

WIZ056-057-062-063-064-067-068-221300-
SOUTH CENTRAL WISCONSIN

CITY           SKY/WX    TMP DP  RH WIND       PRES   REMARKS
REEDSBURG      CLEAR     49  44  82 CALM      29.69S
6HR MIN TEMP:  47; 6HR MAX TEMP:  51;

BARABOO/DELLS  CLEAR     51  41  69 SW13      29.69F
6HR MIN TEMP:  48; 6HR MAX TEMP:  52;

LONE ROCK      CLEAR     44  42  93 E5        29.72F
6HR MIN TEMP:  36; 6HR MAX TEMP:  52;

MINERAL POINT  HVY SNOW  45  45 100 S9        29.74F VSB<1/4
MADISON        PTCLDY    46  46 100 S7        29.73F FOG
6HR MIN TEMP:  38; 6HR MAX TEMP:  49;

MIDDLETON      CLEAR     50  46  88 SW7       29.73S
6HR MIN TEMP:  49; 6HR MAX TEMP:  55;

WATERTOWN      FOG       49  49 100 SW9       29.74S VSB 1
6HR MIN TEMP:  38; 6HR MAX TEMP:  49;

MONROE         FOG       50  50 100 SW14      29.75S VSB 1/4
JANESVILLE     FOG       52  52 100 SW7       29.76S VSB 1/2
$$

WIZ051-052-058>065-066-070>072-221300-
SOUTHEAST WISCONSIN

CITY           SKY/WX    TMP DP  RH WIND       PRES   REMARKS
MILWAUKEE      FOG       51  50  96 SW10      29.76F VSB 1/4
6HR MIN TEMP:  40; 6HR MAX TEMP:  51;

WAUKESHA       FOG       48  48 100 SW9       29.77S VSB 1
MILWAUKEE/TIMM CLOUDY    50  46  87 SW10      29.76F FOG
RACINE         FOG       51  50  96 SW9       29.79F VSB 1/2
6HR MIN TEMP:  39; 6HR MAX TEMP:  51;

KENOSHA        FOG       51  50  96 SW8       29.77F VSB 1/4
6HR MIN TEMP:  44; 6HR MAX TEMP:  50;

FOND DU LAC    CLEAR     48  43  82 S10       29.71F
6HR MIN TEMP:  46; 6HR MAX TEMP:  53;

SHEBOYGAN      CLEAR     45  42  89 SW8       29.71F
6HR MIN TEMP:  36; 6HR MAX TEMP:  46;

WEST BEND      PTCLDY    48  48 100 SW6       29.73F
JUNEAU         FOG       44  44  99 S12       29.74F VSB<1/4
6HR MIN TEMP:  41; 6HR MAX TEMP:  46;

$$

LSZ147-162-221300-
LAKE SUPERIOR

STATION/POSITION TIME  TEMP    WIND        PRES    WAVE
                       AIR SEA DIR/SP/G            HT/PER
                 (UTC) (F)     (DEG/KT/KT) (MB)    (FT/S)
DEVILS ISLAND    1200   35     240/  5/  6 1004.3R
PORT WING        1140   33     130/  2/  3 1004.1R
SAXON HARBOR     1130   34     300/  1/  3 1003.7R
$$

LMZ867-665-643>646-221300-
LAKE MICHIGAN

STATION/POSITION TIME  TEMP    WIND        PRES    WAVE
                       AIR SEA DIR/SP/G            HT/PER
                 (UTC) (F)     (DEG/KT/KT) (MB)    (FT/S)
CHAMBERS ISLAND  1140   45     180/  6/ 11 1005.4R
NORTHPORT PIER   1140   38     160/  3/  6 1005.8S
SISTER BAY       1135   38     160/  8/ 10   N/A
ALGOMA LAKESHORE 1140          220/  7/ 10   N/A
KEWAUNEE LAKESHO 1154   37     180/  2/  4 1005.6S
SHEB



USA.gov is the U.S. government's official web portal to all federal, state and local government web resources and services.